TimeEST,TemperatureF,Dew PointF,Humidity,Sea Level PressureIn,VisibilityMPH,Wind Direction,Wind SpeedMPH,Gust SpeedMPH,PrecipitationIn,Events,Conditions,WindDirDegrees,DateUTC
12:53 AM,12.0,5.0,73,30.02,10.0,WSW,6.9,-,N/A,,Mostly Cloudy,240,2013-02-04 05:53:00
1:53 AM,12.9,5.0,71,30.03,10.0,West,5.8,-,N/A,,Mostly Cloudy,270,2013-02-04 06:53:00
2:53 AM,12.0,3.9,70,30.04,10.0,SW,5.8,-,N/A,,Mostly Cloudy,230,2013-02-04 07:53:00
3:53 AM,14.0,5.0,67,30.03,10.0,SW,3.5,-,N/A,,Overcast,230,2013-02-04 08:53:00
5:53 AM,14.0,8.1,77,30.01,10.0,South,3.5,-,N/A,,Mostly Cloudy,180,2013-02-04 10:53:00
6:53 AM,15.1,10.0,80,29.99,9.0,South,3.5,-,N/A,,Overcast,190,2013-02-04 11:53:00
7:53 AM,16.0,10.0,77,30.00,8.0,SSW,4.6,-,N/A,,Overcast,210,2013-02-04 12:53:00
8:44 AM,17.6,10.4,73,29.97,2.0,SSW,4.6,-,0.00,Snow,Light Snow,210,2013-02-04 13:44:00
8:53 AM,17.1,10.9,77,30.02,1.5,SSW,4.6,-,0.00,Snow,Light Snow,200,2013-02-04 13:53:00
9:27 AM,17.6,10.4,73,29.97,2.0,SSW,4.6,-,0.01,Snow,Light Snow,210,2013-02-04 14:27:00
9:36 AM,17.6,10.4,73,29.97,1.8,SSW,3.5,-,0.01,Snow,Light Snow,210,2013-02-04 14:36:00
9:53 AM,17.1,12.0,81,30.01,2.0,South,4.6,-,0.01,Snow,Light Snow,190,2013-02-04 14:53:00
10:53 AM,18.0,12.0,78,30.01,2.0,SSE,3.5,-,0.00,Snow,Light Snow,150,2013-02-04 15:53:00
11:05 AM,17.6,12.2,79,29.96,1.5,Calm,Calm,-,0.01,Snow,Light Snow,0,2013-02-04 16:05:00
11:23 AM,17.6,12.2,79,29.96,3.0,SSE,3.5,-,0.01,Snow,Light Snow,150,2013-02-04 16:23:00
11:36 AM,17.6,12.2,79,29.95,2.0,Calm,Calm,-,0.01,Snow,Light Snow,0,2013-02-04 16:36:00
11:53 AM,18.0,12.9,81,29.99,2.0,Calm,Calm,-,0.01,Snow,Light Snow,0,2013-02-04 16:53:00
11:54 AM,17.6,12.2,79,29.94,3.0,Calm,Calm,-,0.00,Snow,Light Snow,0,2013-02-04 16:54:00
12:53 PM,19.9,12.0,71,29.97,5.0,Calm,Calm,-,0.00,Snow,Light Snow,0,2013-02-04 17:53:00
1:53 PM,19.9,12.9,74,29.95,5.0,Calm,Calm,-,0.00,Snow,Light Snow,0,2013-02-04 18:53:00
2:53 PM,21.9,12.0,66,29.94,9.0,Calm,Calm,-,0.00,,Overcast,0,2013-02-04 19:53:00
3:53 PM,21.0,12.9,71,29.93,8.0,Calm,Calm,-,N/A,,Overcast,0,2013-02-04 20:53:00
4:53 PM,21.9,12.0,66,29.92,7.0,Calm,Calm,-,N/A,,Overcast,0,2013-02-04 21:53:00
5:13 PM,21.2,12.2,68,29.87,9.0,Calm,Calm,-,N/A,,Overcast,0,2013-02-04 22:13:00
5:53 PM,21.0,12.0,68,29.91,7.0,Calm,Calm,-,N/A,,Overcast,0,2013-02-04 22:53:00
6:53 PM,19.9,12.9,74,29.92,9.0,NNE,3.5,-,N/A,,Overcast,20,2013-02-04 23:53:00
7:53 PM,19.9,12.9,74,29.94,7.0,NNE,8.1,-,N/A,,Overcast,30,2013-02-05 00:53:00
8:53 PM,19.0,12.0,74,29.96,6.0,North,4.6,-,N/A,,Haze,10,2013-02-05 01:53:00
9:53 PM,19.0,12.0,74,29.96,7.0,NE,3.5,-,N/A,,Overcast,40,2013-02-05 02:53:00
10:53 PM,19.0,12.9,77,29.95,10.0,Calm,Calm,-,N/A,,Overcast,0,2013-02-05 03:53:00
11:53 PM,19.0,12.0,74,29.97,10.0,WNW,4.6,-,N/A,,Overcast,290,2013-02-05 04:53:00